Weather History for KGTB - January, 2014

Change the Weather History Date:

Saturday, January 11, 2014

  Actual Average Record
Temperature  
Mean Temperature 42 °F -  
Max Temperature 50 °F 23 °F 50 °F (2014)
Min Temperature 33 °F 7 °F -13 °F (2004)
Degree Days  
Heating Degree Days 24    
Moisture  
Dew Point 42 °F    
Average Humidity 97    
Maximum Humidity 100    
Minimum Humidity 87    
Precipitation  
Precipitation 0.48 in - - ()
Sea Level Pressure  
Sea Level Pressure 29.43 in    
Wind  
Wind Speed 16 mph (South)    
Max Wind Speed 25 mph    
Max Gust Speed 37 mph    
Visibility 10 miles    
Events Rain    
Averages and records for this station are not official NWS values.
T = Trace of Precipitation, MM = Missing Value Source: NWS Daily Summary

Daily Weather History Graph

Daily Weather History Graph

Search for Another Location

Airport or City:

Trip Planner

Search our weather history database for the weather conditions in past years. The results will help you decide how hot, cold, wet, or windy it might be!

Date:

Astronomy

Jan. 11, 2014 Rise Set
Actual Time 7:36 AM EST 4:45 PM EST
Civil Twilight 7:03 AM EST 5:18 PM EST
Nautical Twilight 6:27 AM EST 5:54 PM EST
Astronomical Twilight 5:53 AM EST 6:28 PM EST
Moon 1:29 PM EST (1/11) 3:36 AM EST (1/11)
Length of Visible Light 10h 14m
Length of Day
9h 09m
Waxing Gibbous, 83% of the Moon is Illuminated
Jan 11
Waxing Gibbous
Jan 15
Full
Jan 24
Last Quarter
Jan 30
New
Feb 6
First Quarter

Hourly Weather History & Observations

Time (EST) Temp. Windchill Dew Point Humidity Pressure Visibility Wind Dir Wind Speed Gust Speed Precip Events Conditions
12:58 AM 33.8 °F 23.2 °F 32.4 °F 94% 29.98 in 10.0 mi SSE 17.3 mph - N/A   Clear
1:58 AM 34.7 °F 23.4 °F 33.4 °F 95% 29.91 in 10.0 mi SSE 20.7 mph 27.6 mph N/A   Partly Cloudy
2:48 AM 35.6 °F 25.5 °F 35.6 °F 100% 29.85 in 10.0 mi SE 17.3 mph - N/A   Mostly Cloudy
2:58 AM 36.5 °F 26.3 °F 35.4 °F 96% 29.86 in 10.0 mi SSE 18.4 mph 26.5 mph N/A   Mostly Cloudy
3:23 AM 37.4 °F 27.5 °F 35.6 °F 93% 29.82 in 10.0 mi SSE 18.4 mph 28.8 mph N/A   Overcast
3:38 AM 37.4 °F 27.8 °F 35.6 °F 93% 29.80 in 10.0 mi SE 17.3 mph - N/A   Overcast
3:43 AM 37.4 °F 28.5 °F 35.6 °F 93% 29.80 in 10.0 mi SSE 15.0 mph - N/A   Mostly Cloudy
3:45 AM 37.4 °F 28.5 °F 37.4 °F 100% 29.79 in 10.0 mi SSE 15.0 mph - N/A Rain Light Rain
3:50 AM 37.4 °F 28.2 °F 37.4 °F 100% 29.79 in 10.0 mi SSE 16.1 mph - N/A Rain Light Rain
3:58 AM 37.8 °F 29.0 °F 36.5 °F 95% 29.81 in 10.0 mi SSE 15.0 mph - 0.00 in Rain Light Rain
4:04 AM 37.4 °F 28.5 °F 37.4 °F 100% 29.79 in 10.0 mi SSE 15.0 mph - N/A   Mostly Cloudy
4:06 AM 37.4 °F 28.9 °F 37.4 °F 100% 29.79 in 10.0 mi SSE 13.8 mph - N/A Rain Light Rain
4:21 AM 37.4 °F 28.2 °F 37.4 °F 100% 29.77 in 10.0 mi SSE 16.1 mph - N/A   Overcast
4:41 AM 39.2 °F 30.5 °F 37.4 °F 93% 29.74 in 10.0 mi SSE 16.1 mph - N/A   Mostly Cloudy
4:42 AM 39.2 °F 30.5 °F 37.4 °F 93% 29.74 in 10.0 mi SSE 16.1 mph - N/A Rain Light Rain
4:51 AM 39.2 °F 30.2 °F 39.2 °F 100% 29.74 in 10.0 mi SSE 17.3 mph - N/A   Mostly Cloudy
4:58 AM 39.6 °F 30.3 °F 39.0 °F 98% 29.75 in 10.0 mi SSE 18.4 mph - 0.00 in   Overcast
5:58 AM 40.8 °F 31.7 °F 39.7 °F 96% 29.69 in 10.0 mi SSE 19.6 mph - N/A   Scattered Clouds
6:58 AM 41.5 °F 32.9 °F 40.5 °F 96% 29.66 in 10.0 mi SSE 18.4 mph - N/A   Overcast
7:58 AM 42.3 °F 33.3 °F 41.2 °F 96% 29.61 in 10.0 mi SSE 20.7 mph - N/A   Overcast
8:58 AM 43.2 °F 34.7 °F 42.1 °F 96% 29.59 in 10.0 mi SSE 19.6 mph - N/A   Overcast
9:58 AM 44.4 °F 37.9 °F 43.0 °F 95% 29.55 in 10.0 mi SSE 13.8 mph 24.2 mph N/A   Overcast
10:03 AM 44.6 °F 40.2 °F 42.8 °F 93% 29.54 in 10.0 mi South 8.1 mph - N/A   Overcast
10:11 AM 44.6 °F 43.1 °F 44.6 °F 100% 29.56 in 10.0 mi Variable 3.5 mph - N/A   Light Drizzle
10:16 AM 44.6 °F 39.7 °F 44.6 °F 100% 29.56 in 10.0 mi South 9.2 mph - N/A Rain Light Rain
10:21 AM 46.4 °F 41.9 °F 44.6 °F 93% 29.54 in 10.0 mi SSE 9.2 mph - N/A Rain Light Rain
10:31 AM 44.6 °F 42.2 °F 42.8 °F 93% 29.54 in 7.0 mi ESE 4.6 mph - N/A Rain Light Rain
10:44 AM 44.6 °F 41.4 °F 42.8 °F 93% 29.53 in 10.0 mi SE 5.8 mph - N/A   Overcast
10:50 AM 42.8 °F 40.1 °F 42.8 °F 100% 29.53 in 10.0 mi SSE 4.6 mph - N/A   Light Drizzle
10:58 AM 43.9 °F 37.5 °F 43.3 °F 98% 29.54 in 10.0 mi SSE 12.7 mph - 0.03 in   Light Drizzle
11:18 AM 42.8 °F 36.2 °F 42.8 °F 100% 29.49 in 5.0 mi SSE 12.7 mph - N/A Rain Light Rain
11:40 AM 44.6 °F 37.8 °F 44.6 °F 100% 29.46 in 8.0 mi South 15.0 mph - N/A   Overcast
11:43 AM 44.6 °F 38.4 °F 44.6 °F 100% 29.45 in 9.0 mi South 12.7 mph - N/A Rain Light Rain
11:58 AM 44.2 °F 37.0 °F 44.2 °F 100% 29.47 in 10.0 mi South 16.1 mph - 0.14 in Rain Light Rain
12:04 PM 44.6 °F 37.2 °F 44.6 °F 100% 29.45 in 10.0 mi South 17.3 mph - N/A   Overcast
12:06 PM 44.6 °F 37.4 °F 44.6 °F 100% 29.44 in 9.0 mi South 16.1 mph - N/A Rain Light Rain
12:58 PM 45.3 °F 38.1 °F 45.3 °F 100% 29.39 in 10.0 mi South 17.3 mph - 0.08 in Rain Light Rain
1:01 PM 46.4 °F 39.5 °F 46.4 °F 100% 29.37 in 10.0 mi South 17.3 mph - N/A   Overcast
1:12 PM 46.4 °F 40.4 °F 44.6 °F 93% 29.36 in 10.0 mi SSE 13.8 mph - N/A Rain Rain
1:30 PM 44.6 °F 37.8 °F 44.6 °F 100% 29.34 in 10.0 mi SSE 15.0 mph - N/A   Overcast
1:36 PM 44.6 °F 38.4 °F 44.6 °F 100% 29.33 in 10.0 mi SE 12.7 mph - N/A Rain Light Rain
1:58 PM 44.1 °F 36.8 °F 44.1 °F 100% 29.34 in 10.0 mi SSE 16.1 mph - 0.06 in Rain Light Rain
2:20 PM 44.6 °F 37.8 °F 44.6 °F 100% 29.29 in 10.0 mi SSE 15.0 mph - N/A   Mostly Cloudy
2:23 PM 44.6 °F 37.8 °F 44.6 °F 100% 29.29 in 10.0 mi SSE 15.0 mph - N/A Rain Light Rain
2:38 PM 44.6 °F 37.8 °F 44.6 °F 100% 29.27 in 10.0 mi SSE 15.0 mph - N/A   Scattered Clouds
2:58 PM 45.5 °F 38.3 °F 45.5 °F 100% 29.26 in 10.0 mi SSE 17.3 mph - 0.01 in   Partly Cloudy
3:58 PM 45.5 °F 39.2 °F 45.3 °F 99% 29.24 in 10.0 mi SSE 13.8 mph - N/A   Overcast
4:49 PM 44.6 °F 38.4 °F 44.6 °F 100% 29.22 in 10.0 mi SSE 12.7 mph - N/A   Light Drizzle
4:58 PM 45.1 °F 39.5 °F 44.8 °F 99% 29.22 in 10.0 mi SSE 11.5 mph - 0.00 in Rain Light Rain
5:14 PM 44.6 °F 37.2 °F 44.6 °F 100% 29.20 in 10.0 mi SSW 17.3 mph - N/A   Overcast
5:15 PM 44.6 °F 37.4 °F 44.6 °F 100% 29.20 in 10.0 mi SSW 16.1 mph - N/A   Light Drizzle
5:16 PM 44.6 °F 37.4 °F 44.6 °F 100% 29.20 in 10.0 mi SSW 16.1 mph - N/A   Overcast
5:33 PM 48.2 °F - 44.6 °F 87% 29.20 in 10.0 mi SSW 17.3 mph - N/A Rain Light Rain
5:55 PM 50.0 °F - 46.4 °F 87% 29.18 in 10.0 mi SSW 16.1 mph 28.8 mph N/A   Overcast
5:57 PM 48.2 °F - 46.4 °F 93% 29.17 in 10.0 mi SSW 18.4 mph 28.8 mph N/A Rain Light Rain
5:58 PM 48.2 °F - 46.4 °F 93% 29.18 in 10.0 mi SSW 20.7 mph 28.8 mph 0.01 in Rain Light Rain
6:33 PM 48.2 °F - 46.4 °F 93% 29.17 in 9.0 mi SSW 20.7 mph 27.6 mph N/A Rain Light Rain
6:37 PM 48.2 °F - 46.4 °F 93% 29.17 in 10.0 mi SSW 18.4 mph - N/A   Overcast
6:47 PM 48.2 °F - 46.4 °F 93% 29.18 in 10.0 mi SW 13.8 mph 21.9 mph N/A   Mostly Cloudy
6:52 PM 50.0 °F - 46.4 °F 87% 29.18 in 9.0 mi SW 15.0 mph 24.2 mph N/A Rain Light Rain
6:58 PM 49.3 °F - 47.1 °F 92% 29.19 in 7.0 mi SW 17.3 mph 25.3 mph 0.03 in Rain Rain
7:23 PM 46.4 °F 39.2 °F 44.6 °F 93% 29.21 in 8.0 mi WSW 18.4 mph 31.1 mph N/A Rain Light Rain
7:33 PM 44.6 °F 37.2 °F 44.6 °F 100% 29.20 in 8.0 mi WSW 17.3 mph 26.5 mph N/A Rain Light Rain
7:58 PM 44.8 °F 38.0 °F 44.8 °F 100% 29.23 in 10.0 mi WSW 15.0 mph 28.8 mph 0.08 in Rain Light Rain
8:18 PM 44.6 °F 37.4 °F 44.6 °F 100% 29.21 in 10.0 mi WSW 16.1 mph 26.5 mph N/A Rain Light Rain
8:23 PM 44.6 °F 37.2 °F 44.6 °F 100% 29.21 in 10.0 mi WSW 17.3 mph 26.5 mph N/A Rain Light Rain
8:28 PM 44.6 °F 36.6 °F 42.8 °F 93% 29.21 in 10.0 mi WSW 19.6 mph 28.8 mph N/A Rain Light Rain
8:33 PM 44.6 °F 37.2 °F 42.8 °F 93% 29.21 in 10.0 mi WSW 17.3 mph 28.8 mph N/A Rain Light Rain
8:43 PM 42.8 °F 34.5 °F 42.8 °F 100% 29.22 in 10.0 mi WSW 18.4 mph 28.8 mph N/A Rain Light Rain
8:55 PM 42.8 °F 34.0 °F 41.0 °F 93% 29.23 in 10.0 mi WSW 20.7 mph 34.5 mph N/A   Overcast
8:58 PM 42.8 °F 33.1 °F 41.0 °F 93% 29.25 in 10.0 mi WSW 25.3 mph 36.8 mph 0.02 in   Overcast
9:06 PM 41.0 °F 31.4 °F 41.0 °F 100% 29.24 in 10.0 mi WSW 21.9 mph 36.8 mph N/A   Light Drizzle
9:11 PM 41.0 °F 31.1 °F 41.0 °F 100% 29.25 in 9.0 mi WSW 23.0 mph 32.2 mph N/A   Drizzle
9:48 PM 39.2 °F 29.6 °F 39.2 °F 100% 29.26 in 10.0 mi WSW 19.6 mph 31.1 mph N/A   Overcast
9:58 PM 39.4 °F 29.8 °F 39.0 °F 99% 29.27 in 10.0 mi WSW 19.6 mph 34.5 mph 0.02 in   Overcast
10:08 PM 39.2 °F 28.3 °F 39.2 °F 100% 29.27 in 10.0 mi WSW 25.3 mph 35.7 mph N/A   Light Drizzle
10:18 PM 39.2 °F 29.8 °F 39.2 °F 100% 29.27 in 10.0 mi WSW 18.4 mph 27.6 mph N/A   Overcast
10:58 PM 38.1 °F 28.4 °F 37.4 °F 97% 29.31 in 10.0 mi WSW 18.4 mph 34.5 mph 0.00 in   Overcast
11:53 PM 37.4 °F 26.9 °F 35.6 °F 93% 29.31 in 10.0 mi WSW 20.7 mph 29.9 mph N/A   Overcast
11:58 PM 37.8 °F 28.6 °F 36.0 °F 93% 29.33 in 10.0 mi WSW 16.1 mph 35.7 mph N/A   Overcast